#timestamp,LO_Frequency,Hit,StdDev 
1594699215.3,286047005.9,P
1594699235.2,286047007.6,N
1594699255.0,286047004.8,N
1594699255.9,286047004.8,N
1594699275.8,286047003.3,N
1594699295.6,286047001.9,N
1594699315.4,286047002.8,N
1594699335.3,286047002.6,N
1594699355.1,286047002.8,N
1594699375.9,286046999.7,N
1594699395.7,286047002.2,N
1594699415.5,286047002.2,N
1594699435.4,286047001.8,N
1594699455.2,286047004.2,N
1594699475.0,286047007.6,Y
1594699475.9,286047007.6,P
1594699495.8,286047003.2,N
1594699515.6,286047003.2,N
1594699535.5,286047003.1,N
1594699555.3,286047001.5,N
1594699575.2,286047003.7,N
1594699595.9,286047002.0,N
1594699615.7,286046999.9,N
1594699635.6,286047000.2,N
1594699655.4,286047004.3,N
1594699675.2,286047001.7,N
1594699695.1,286046999.7,N
1594699696.0,286046999.7,N
1594699715.8,286047001.0,N
1594699735.7,286047002.2,N
1594699755.5,286047001.8,N
1594699775.3,286047003.6,N
1594699795.2,286047002.0,N
1594699815.0,286047007.6,Y
1594699815.9,286047007.6,P
1594699835.8,286047001.5,N
1594699855.6,286047001.1,N
1594699875.4,286046998.4,N
1594699895.3,286046999.1,N
1594699915.1,286046999.0,N
1594699935.9,286046997.0,N
1594699955.7,286046999.4,N
1594699975.5,286047001.7,N
1594699995.4,286047002.6,N
1594700015.2,286046998.7,N
1594700035.0,286047001.8,N
1594700035.9,286047001.8,N
1594700055.8,286047001.8,N
1594700075.6,286046998.4,N
1594700095.5,286046996.6,N
1594700115.3,286046998.8,N
1594700135.1,286046996.5,N
1594700155.9,286046997.8,N
1594700175.7,286046997.3,N
1594700195.6,286046998.0,N
1594700215.4,286046995.5,N
1594700235.2,286046995.4,N
1594700255.1,286046998.8,N
1594700256.0,286046998.8,N
1594700275.8,286046999.3,N
1594700295.6,286046996.6,N
1594700315.5,286046997.0,N
1594700335.3,286046996.8,N
1594700355.2,286046995.7,N
1594700375.9,286046995.0,N
1594700395.7,286046996.9,N
1594700415.6,286046997.8,N
1594700435.4,286046995.4,N
1594700455.3,286046998.4,N
1594700475.1,286046999.5,N
1594700495.8,286046998.1,N
1594700515.7,286047000.8,N
1594700535.5,286046996.6,N
1594700555.4,286046996.7,N
1594700575.2,286047002.5,N
1594700595.0,286047000.3,N
1594700595.9,286047000.3,N
1594700615.8,286047000.4,N
1594700635.6,286046999.7,N
1594700655.5,286046999.7,N
1594700675.3,286046997.2,N
1594700695.1,286046999.4,N
1594700715.9,286046999.0,N
1594700735.7,286046998.1,N
1594700755.6,286046999.3,N
1594700775.4,286046996.8,N
1594700795.2,286046998.8,N
1594700815.1,286047002.2,N
1594700816.0,286047002.2,N
1594700835.8,286047000.4,N
1594700855.7,286047001.2,N
1594700875.5,286046998.6,N
1594700895.3,286047001.3,N
1594700915.2,286047001.1,N
1594700935.0,286046998.2,N
1594700935.9,286046998.2,N
1594700955.8,286047000.7,N
1594700975.6,286047003.0,N
1594700995.4,286047005.8,Y
1594701015.3,286047001.8,P
1594701035.1,286047000.3,N
1594701055.8,286047006.0,P
1594701075.7,286047004.7,N
1594701095.5,286047001.4,N
1594701115.4,286047004.2,N
1594701135.2,286046999.9,N
1594701155.0,286047005.6,N
1594701155.9,286047005.6,N
1594701175.8,286047005.5,N
1594701195.6,286047004.5,N
1594701215.5,286047007.3,Y
1594701235.3,286047002.0,P
1594701255.1,286047003.9,P
1594701275.9,286047002.4,P
1594701295.7,286047001.2,N
1594701315.5,286046998.4,N
1594701335.4,286047000.0,N
1594701355.2,286047001.1,N
1594701375.1,286047002.3,N
1594701376.0,286047002.3,N
1594701395.8,286046998.7,N
1594701415.6,286046994.9,Y
1594701435.5,286046995.6,P
1594701455.3,286046995.6,N
1594701475.0,286046995.7,N
1594701475.9,286046995.7,N
1594701495.8,286046994.3,N
1594701515.6,286046994.2,N
1594701535.4,286046992.6,Y
1594701555.3,286046997.4,P
1594701575.1,286046996.9,P
1594701595.8,286047002.2,P
1594701615.7,286047005.5,N
1594701635.5,286047003.5,N
1594701655.4,286047003.0,N
1594701675.2,286047001.4,N
1594701695.0,286047000.1,N
1594701695.9,286047000.1,N
1594701715.8,286047000.0,N
1594701735.6,286047000.8,N
1594701755.5,286047002.7,N
1594701775.3,286047001.5,N
1594701795.1,286047003.1,N
1594701815.9,286047002.6,N
1594701835.7,286046996.5,N
1594701855.6,286046999.6,N
1594701875.4,286046998.3,N
1594701895.2,286046998.5,N
1594701915.1,286046999.3,N
1594701916.0,286046999.3,N
1594701965.8,286046999.2,E
1594701975.8,286046999.1,N
1594701995.6,286047000.2,P
1594702015.4,286046999.5,N
1594702035.3,286046997.8,Y
1594702055.1,286047001.2,P
1594702075.9,286046995.0,P
1594702095.7,286046997.5,N
1594702115.5,286046997.4,N
1594702135.4,286046997.7,N
1594702155.2,286046998.5,N
1594702175.0,286046998.3,N
1594702175.9,286046998.3,N
1594702195.8,286046997.3,N
1594702215.6,286046996.2,N
1594702235.5,286046997.7,N
1594702255.3,286046994.0,Y
1594702275.1,286046999.9,P
1594702295.9,286047004.2,P
1594702315.7,286047004.4,N
1594702335.5,286047003.0,N
1594702355.4,286047004.0,N
1594702375.2,286047001.5,N
1594702395.1,286047005.1,N
1594702396.0,286047005.1,N
1594702415.8,286047005.0,N
1594702435.6,286047005.7,N
1594702455.5,286047007.2,Y
1594702475.3,286047004.2,P
1594702495.2,286047001.4,N
1594702515.9,286047004.1,P
1594702535.7,286047002.7,N
1594702555.6,286047003.9,Y
1594702575.4,286047000.9,P
1594702595.3,286046999.3,N
1594702615.1,286046998.1,N
1594702616.0,286046998.1,N
1594702635.8,286046998.6,N
1594702655.7,286046998.9,N
1594702675.5,286046999.6,N
1594702695.3,286046999.1,N
1594702715.2,286046998.3,N
1594702735.0,286046997.4,N
1594702735.9,286046997.4,N
1594702755.8,286046997.8,N
1594702775.6,286046996.8,N
1594702795.4,286046995.2,Y
